Date String (YYYY-MM-DD hh:mm:ss) UTC,Instrument flags,absolute air pressure of the measurement (hPa),sample flow rate (lpm),inlet stack bypass flow (lpm),air temperature of the measurement (°C),ambient temperature measured by the external sensor (°C),aerosol sample conditioner tube jacket temperature (°C),OPC LED temperature (°C),internal box temperature (°C),relative humidity of the measurement (%),span deviation,mass concentration of particles derived from Lorenz-Mie calculation of OPC scattering (μg/m³),mass concentration of particles derived from Lorenz-Mie calculation of OPC scattering (μg/m³),mass concentration of particles derived from Lorenz-Mie calculation of OPC scattering (μg/m³)
DateTimeUTC,F1_M11,P_M11,Q1_M11,Q2_M11,T1_M11,T2_M11,T3_M11,T4_M11,T5_M11,U1_M11,ZSPAN_M11,X0_M11,X2_M11,X1_M11
2024-01-27 01:00:00,SystemResetWarning,0835.6,5.01,000.00,023.5,022.4,000.0,031.9,024.9,15.5,0000.0,0004.49,0003.22,0002.95
2024-01-27 01:01:00,SystemResetWarning,0835.6,5.00,000.00,023.5,022.4,000.0,031.8,024.9,15.4,0000.0,0004.39,0003.23,0002.97
2024-01-27 01:02:00,SystemResetWarning,0835.6,5.00,000.00,023.5,022.4,000.0,031.8,024.9,15.3,0000.0,0004.40,0003.23,0002.98
2024-01-27 01:03:00,SystemResetWarning,0835.7,4.99,000.00,023.5,022.4,000.0,031.8,024.9,15.4,0000.0,0004.33,0003.26,0002.99
2024-01-27 01:04:00,SystemResetWarning,0835.7,5.00,000.00,023.5,022.4,000.0,031.8,024.9,15.4,0000.0,0004.26,0003.26,0003.00
2024-01-27 01:05:00,SystemResetWarning,0835.6,5.00,000.00,023.5,022.4,000.0,031.8,024.9,15.5,0000.0,0004.30,0003.27,0003.00
2024-01-27 01:06:00,SystemResetWarning,0835.7,5.00,000.00,023.5,022.4,000.0,031.8,024.9,15.5,0000.0,0004.41,0003.28,0003.01
2024-01-27 01:07:00,SystemResetWarning,0835.8,5.00,000.00,023.5,022.4,000.0,031.8,024.9,15.5,0000.0,0004.40,0003.29,0003.01
2024-01-27 01:08:00,SystemResetWarning,0835.7,5.01,000.00,023.5,022.4,000.0,031.8,024.9,15.4,0000.0,0004.65,0003.31,0003.02
2024-01-27 01:09:00,SystemResetWarning,0835.7,5.00,000.00,023.5,022.4,000.0,031.8,024.9,15.4,0000.0,0004.67,0003.32,0003.04
2024-01-27 01:10:00,SystemResetWarning,0835.8,4.99,000.00,023.5,022.4,000.0,031.8,024.9,15.3,0000.0,0004.68,0003.32,0003.06
2024-01-27 01:11:00,SystemResetWarning,0835.8,4.99,000.00,023.5,022.4,000.0,031.8,024.9,15.3,0000.0,0004.79,0003.34,0003.06
2024-01-27 01:12:00,SystemResetWarning,0835.8,4.99,000.00,023.5,022.4,000.0,031.8,024.9,15.4,0000.0,0004.82,0003.34,0003.05
2024-01-27 01:13:00,SystemResetWarning,0835.8,5.00,000.00,023.5,022.4,000.0,031.8,024.9,15.5,0000.0,0004.59,0003.30,0003.05
2024-01-27 01:14:00,SystemResetWarning,0835.8,5.00,000.00,023.5,022.4,000.0,031.8,024.9,15.5,0000.0,0005.93,0003.29,0003.05
2024-01-27 01:15:00,SystemResetWarning,0835.8,5.00,000.00,023.5,022.4,000.0,031.8,024.9,15.3,0000.0,0006.27,0003.26,0003.04
2024-01-27 01:16:00,SystemResetWarning,0835.8,5.00,000.00,023.5,022.4,000.0,031.8,024.9,15.3,0000.0,0006.45,0003.28,0003.04
2024-01-27 01:17:00,SystemResetWarning,0835.8,5.00,000.00,023.5,022.4,000.0,031.8,024.9,15.4,0000.0,0006.36,0003.26,0003.03
2024-01-27 01:18:00,SystemResetWarning,0835.8,5.01,000.00,023.5,022.4,000.0,031.8,024.9,15.4,0000.0,0006.42,0003.26,0003.02
2024-01-27 01:19:00,SystemResetWarning,0835.8,5.00,000.00,023.5,022.4,000.0,031.8,024.9,15.3,0000.0,0006.20,0003.23,0003.00
2024-01-27 01:20:00,SystemResetWarning,0835.8,5.00,000.00,023.5,022.4,000.0,031.8,024.9,15.0,0000.0,0006.06,0003.22,0002.98
2024-01-27 01:21:00,SystemResetWarning,0835.9,5.00,000.00,023.5,022.4,000.0,031.8,024.9,14.7,0000.0,0006.07,0003.23,0002.98
2024-01-27 01:22:00,SystemResetWarning,0835.9,5.00,000.00,023.5,022.4,000.0,031.8,024.9,14.8,0000.0,0005.96,0003.21,0002.97
2024-01-27 01:23:00,SystemResetWarning,0835.9,5.00,000.00,023.5,022.4,000.0,031.8,024.8,15.0,0000.0,0005.88,0003.19,0002.96
2024-01-27 01:24:00,SystemResetWarning,0835.9,5.00,000.00,023.5,022.3,000.0,031.8,024.8,15.1,0000.0,0006.06,0003.21,0002.95
2024-01-27 01:25:00,SystemResetWarning,0835.9,5.00,000.00,023.5,022.3,000.0,031.8,024.8,15.4,0000.0,0005.37,0003.21,0002.93
2024-01-27 01:26:00,SystemResetWarning,0835.9,5.00,000.00,023.5,022.3,000.0,031.8,024.8,15.5,0000.0,0004.52,0003.22,0002.93
2024-01-27 01:27:00,SystemResetWarning,0835.9,5.00,000.00,023.5,022.3,000.0,031.8,024.8,15.5,0000.0,0004.34,0003.19,0002.92
2024-01-27 01:28:00,SystemResetWarning,0835.9,5.00,000.00,023.5,022.3,000.0,031.8,024.8,15.3,0000.0,0004.20,0003.17,0002.89
2024-01-27 01:29:00,SystemResetWarning,0835.9,5.00,000.00,023.4,022.3,000.0,031.8,024.8,15.3,0000.0,0004.13,0003.18,0002.89
2024-01-27 01:30:00,SystemResetWarning,0835.9,4.99,000.00,023.4,022.3,000.0,031.8,024.8,15.3,0000.0,0004.12,0003.18,0002.89
2024-01-27 01:31:00,SystemResetWarning,0835.9,5.00,000.00,023.4,022.3,000.0,031.8,024.8,15.4,0000.0,0004.16,0003.18,0002.88
2024-01-27 01:32:00,SystemResetWarning,0835.9,5.00,000.00,023.4,022.3,000.0,031.8,024.8,15.3,0000.0,0004.15,0003.17,0002.87
2024-01-27 01:33:00,SystemResetWarning,0835.9,5.00,000.00,023.4,022.3,000.0,031.7,024.8,15.3,0000.0,0004.20,0003.17,0002.87
2024-01-27 01:34:00,SystemResetWarning,0835.9,5.00,000.00,023.4,022.3,000.0,031.7,024.8,15.3,0000.0,0004.24,0003.19,0002.85
2024-01-27 01:35:00,SystemResetWarning,0835.9,5.00,000.00,023.4,022.3,000.0,031.7,024.8,15.5,0000.0,0004.33,0003.21,0002.86
2024-01-27 01:36:00,SystemResetWarning,0835.9,5.00,000.00,023.4,022.3,000.0,031.7,024.8,15.4,0000.0,0004.19,0003.22,0002.87
2024-01-27 01:37:00,SystemResetWarning,0836.0,5.00,000.00,023.4,022.3,000.0,031.7,024.8,15.3,0000.0,0004.30,0003.23,0002.87
2024-01-27 01:38:00,SystemResetWarning,0836.0,5.00,000.00,023.4,022.2,000.0,031.7,024.8,15.1,0000.0,0004.34,0003.24,0002.87
2024-01-27 01:39:00,SystemResetWarning,0836.0,5.00,000.00,023.4,022.3,000.0,031.7,024.8,15.1,0000.0,0004.43,0003.26,0002.87
2024-01-27 01:40:00,SystemResetWarning,0836.0,5.01,000.00,023.4,022.3,000.0,031.7,024.8,15.2,0000.0,0004.54,0003.27,0002.86
2024-01-27 01:41:00,SystemResetWarning,0836.1,5.00,000.00,023.4,022.3,000.0,031.7,024.8,15.2,0000.0,0004.58,0003.27,0002.87
2024-01-27 01:42:00,SystemResetWarning,0836.0,5.00,000.00,023.4,022.3,000.0,031.7,024.8,15.0,0000.0,0004.57,0003.27,0002.87
2024-01-27 01:43:00,SystemResetWarning,0836.0,5.00,000.00,023.4,022.3,000.0,031.7,024.8,15.2,0000.0,0005.65,0003.28,0002.86
2024-01-27 01:44:00,SystemResetWarning,0836.1,5.00,000.00,023.4,022.3,000.0,031.7,024.8,15.1,0000.0,0006.29,0003.27,0002.86
2024-01-27 01:45:00,SystemResetWarning,0836.1,4.99,000.00,023.4,022.3,000.0,031.7,024.8,15.0,0000.0,0006.47,0003.26,0002.88
2024-01-27 01:46:00,SystemResetWarning,0836.1,5.00,000.00,023.4,022.3,000.0,031.7,024.8,14.9,0000.0,0006.39,0003.22,0002.88
2024-01-27 01:47:00,SystemResetWarning,0836.1,4.99,000.00,023.4,022.3,000.0,031.7,024.8,14.9,0000.0,0006.40,0003.21,0002.89
2024-01-27 01:48:00,SystemResetWarning,0836.1,4.99,000.00,023.4,022.3,000.0,031.7,024.7,14.9,0000.0,0006.37,0003.20,0002.89
2024-01-27 01:49:00,SystemResetWarning,0836.1,4.99,000.00,023.4,022.2,000.0,031.7,024.8,14.9,0000.0,0006.33,0003.18,0002.88
2024-01-27 01:50:00,SystemResetWarning,0836.1,5.00,000.00,023.4,022.2,000.0,031.7,024.8,14.8,0000.0,0006.27,0003.17,0002.89
2024-01-27 01:51:00,SystemResetWarning,0836.1,5.00,000.00,023.3,022.2,000.0,031.7,024.8,14.8,0000.0,0006.46,0003.16,0002.88
2024-01-27 01:52:00,SystemResetWarning,0836.1,5.00,000.00,023.3,022.2,000.0,031.7,024.8,14.8,0000.0,0008.00,0003.15,0002.88
2024-01-27 01:53:00,SystemResetWarning,0836.1,5.00,000.00,023.3,022.2,000.0,031.7,024.8,14.7,0000.0,0008.58,0003.17,0002.89
2024-01-27 01:54:00,SystemResetWarning,0836.1,5.00,000.00,023.3,022.3,000.0,031.7,024.8,14.7,0000.0,0008.15,0003.17,0002.91
2024-01-27 01:55:00,SystemResetWarning,0836.1,5.00,000.00,023.3,022.3,000.0,031.7,024.8,14.7,0000.0,0007.82,0003.19,0002.92
2024-01-27 01:56:00,SystemResetWarning,0836.1,5.00,000.00,023.3,022.3,000.0,031.7,024.7,14.7,0000.0,0007.73,0003.20,0002.93
2024-01-27 01:57:00,SystemResetWarning,0836.2,5.00,000.00,023.3,022.3,000.0,031.7,024.7,14.7,0000.0,0007.67,0003.22,0002.94
2024-01-27 01:58:00,SystemResetWarning,0836.2,5.00,000.00,023.3,022.2,000.0,031.7,024.7,14.7,0000.0,0007.60,0003.23,0002.96
2024-01-27 01:59:00,SystemResetWarning,0836.2,5.00,000.00,023.3,022.2,000.0,031.6,024.7,14.7,0000.0,0007.59,0003.24,0002.98
